Location: Creston
(40.9870°N, 81.8938°W)
Time: 18:43:36
(UTC+00:00)

Cosmos 2369 - Pass Details

Date: 29 October 2020
Orbit: 840 x 855 km, 71.0° (Epoch: 24 November)

Event Time Altitude Azimuth Distance (km) Brightness Sun altitude
Rises 23:30:14 0° 189° (S) 3,407 7.1 -12.6°
Reaches altitude 10° 23:32:43 10° 185° (S) 2,475 6.3 -13.0°
Maximum altitude 23:38:15 56° 108° (ESE) 1,010 3.8 -14.1°
Drops below altitude 10° 23:43:48 10° 32° (NNE) 2,483 5.8 -15.1°
Enters shadow 23:45:09 - 30° (NNE) 2,985 6.2 -15.4°
